Probability
0 0 0 0 0 0 0 0 0 0 0 0 0 0 0 0 0 0 0 0 0 0 0 0 0 0 0 0 0 0 0 0 0 0 0 0 0 0 0 0 0 0 0
0 0 0 0 0 0 0 0 0 0 0 0 0 0 0 0 0 0 0 0 0 0 0 0 0 0 0 0 0 0 0 0 0 0 0 0 0 0 0 0 0 0 0
0 0 0 0 0 0 0 0 0 0 0 0 0 0 0 0 0 0 0 0 0 0 0 0 0 0 0 0 0 0 0 0 0 0 0 0 0 0 0 0 0 0 0
0 0 0 0 0 0 0 0 0 0 0 0 0 0 0 0 0 0 0 0 0 0 0 0 0 0 0 0 0 0 0 0 0 0 0 0 0 0 0 0 0 0 0
0 0 0 0 0 0 0 0 0 0 0 0 0 0 0 0 0 0 0 0 0 0 0 0 0 0 0 0 0 0 0 0 0 0 0 0 0 0 0 0 0 0 0
0 0 0 0 0 0 0 0 0 0 0 0 0 0 0 0 0 0 0 0 0 0 0 0 0 0 0 0 0 0 0 0 0 0 0 0 0 0 0 0 0 0 0
0 0 0 0 0 0 0 0 0 0 0 0 0 0 0 0 0 0 0 0 0 0 0 0 0 0 0 0 0 0 0 0 0 0 0 0 0 0 0 0 0 0 0
0 0 0 0 0 0 0 0 0 0 0 0 0 0 0 0 0 0 0 0 0 0 0 0 0 0 0 0 0 0 0 0 0 0 0 0 0 0 0 0 0 0 0
0 0 0 0 0 0 0 0 0 0 0 0 0 0 0 0 0 0 0 0 0 0 0 0 0 0 0 0 0 0 0 0 0 0 0 0 0 0 0 0 0 0 0
0 0 0 0 0 0 0 0 0 0 0 0 0 0 0 0 0 0 0 0 0 0 0 0 0 0 0 0 0 0 0 0 0 0 0 0 0 0 0 0 0 0 0
0 0 0 0 0 0 0 0 0 0 0 0 0 0 0 0 0 0 0 0 0 0 0 0 0 0 0 0 0 0 0 0 0 0 0 0 0 0 0 0 0 0 0
0 0 0 0 0 0 0 0 0 0 0 0 0 0 0 0 0 0 0 0 0 0 0 0 0 0 0 0 0 0 0 0 0 0 0 0 0 0 0 0 0 0 0
0 0 0 0 0 0 0 0 0 0 0 0 0 0 0 0 0 0 0 0 0 0 0 0 0 0 0 0 0 0 0 0 0 0 0 0 0 0 0 0 0 0 0
0 0 0 0 0 0 0 0 0 0 0 0 0 0 0 0 0 0 0 0 0 0 0 0 0 0 0 0 0 0 0 0 0 0 0 0 0 0 0 0 0 0 0
0 0 0 0 0 0 0 0 0 0 0 0 0 0 0 0 0 0 0 0 0 0 0 0 0 0 0 0 0 0 0 0 0 0 0 0 0 0 0 0 0 0 0
0 0 0 0 0 0 0 0 0 0 0 0 0 0 0 0 0 0 0 0 0 0 0 0 0 0 0 0 0 0 0 0 0 0 0 0 0 0 0 0 0 0 0
0 0 0 0 0 0 0 0 0 0 0 0 0 0 0 0 0 0 0 0 0 0 0 0 0 0 0 0 0 0 0 0 0 0 0 0 0 0 0 0 0 0 0
0 0 0 0 0 0 0 0 0 0 0 0 0 0 0 0 0 0 0 0 0 0 0 0 0 0 0 0 0 0 0 0 0 0 0 0 0 0 0 0 0 0 0
0 0 0 0 0 0 0 0 0 0 0 0 0 0 0 0 0 0 0 0 0 0 0 0 0 0 0 0 0 0 0 0 0 0 0 0 0 0 0 0 0 0 0
0 0 0 0 0 0 0 0 0 0 0 0 0 0 0 0 0 0 0 0 0 0 0 0 0 0 0 0 0 0 0 0 0 0 0 0 0 0 0 0 0 0 0
0 0 0 0 0 0 0 0 0 0 0 0 0 0 0 0 0 0 0 0 0 0 0 0 0 0 0 0 0 0 0 0 0 0 0 0 0 0 0 0 0 0 0
0 0 0 0 0 0 0 0 0 0 0 0 0 0 0 0 0 0 0 0 0 0 0 0 0 0 0 0 0 0 0 0 0 0 0 0 0 0 0 0 0 0 0
0 0 0 0 0 0 0 0 0 0 0 0 0 0 0 0 0 0 0 0 0 0 0 0 0 0 0 0 0 0 0 0 0 0 0 0 0 0 0 0 0 0 0
0 0 0 0 0 0 0 0 0 0 0 0 0 0 0 0 0 0 0 0 0 0 0 0 0 0 0 0 0 0 0 0 0 0 0 0 0 0 0 0 0 0 0
0 0 0 0 0 0 0 0 0 0 0 0 0 0 0 0 0 0 0 0 0 0 0 0 0 0 0 0 0 0 0 0 0 0 0 0 0 0 0 0 0 0 0
0 0 0 0 0 0 0 0 0 0 0 0 0 0 0 0 0 0 0 0 0 0 0 0 0 0 0 0 0 0 0 0 0 0 0 0 0 0 0 0 0 0 0
Wind_Speed
8 8 8 7 7 7 7 6 6 5 4 3 2 1 1 3 4 4 4 5 5 4 4 4 5 4 3 4 4 4 4 4 9 7 4 4 6 8 9 8 8 8 10
7 7 7 7 7 6 6 5 5 5 4 4 4 6 7 8 7 6 6 5 5 5 5 5 6 6 6 5 4 5 5 5 6 11 6 4 6 7 8 9 10 10 7
7 7 7 7 7 7 6 6 6 7 7 8 8 8 7 6 5 4 4 4 4 5 5 6 7 7 7 6 6 6 6 7 6 8 8 5 5 6 7 9 10 8 10
7 8 8 7 7 7 7 8 8 8 8 7 7 6 5 4 4 3 3 4 5 6 6 6 7 7 8 8 7 7 7 7 7 8 9 7 7 7 6 7 8 6 8
8 8 7 7 7 8 8 8 7 7 7 5 5 4 3 2 2 2 3 5 6 7 8 7 8 12 15 11 9 7 7 7 7 8 9 8 7 6 6 6 9 8 8
8 7 7 7 8 7 7 6 6 6 5 5 4 3 2 1 2 5 6 5 6 7 8 9 10 11 13 18 20 19 17 12 9 9 8 9 9 8 7 7 8 9 7
8 7 7 6 7 6 6 6 5 4 4 4 3 2 2 3 4 6 10 7 7 7 8 8 9 10 13 10 14 18 17 19 19 12 10 9 9 8 8 9 9 9 9
7 5 5 6 6 6 6 5 4 3 3 2 2 3 2 3 5 7 11 7 7 8 8 9 9 10 11 12 12 12 11 11 12 9 8 9 9 8 8 8 9 8 7
4 4 4 5 6 5 5 4 3 2 3 3 3 4 3 4 6 7 9 5 6 8 9 9 10 10 13 16 12 11 11 9 10 11 10 10 12 12 9 6 5 5 5
4 4 5 5 5 4 3 2 2 2 3 3 4 4 4 3 6 9 10 4 6 8 8 9 12 11 14 15 10 8 9 8 8 8 8 7 6 6 7 5 4 5 4
4 5 5 5 4 3 2 2 3 3 4 4 4 4 4 5 7 10 12 5 6 8 8 7 8 13 15 14 11 7 9 9 7 6 5 5 4 3 3 3 4 3 4
4 5 5 4 3 3 3 3 4 4 4 4 4 5 4 5 7 10 14 13 11 7 7 7 8 14 15 13 9 10 12 9 5 4 4 4 4 3 3 4 5 4 3
4 5 4 4 4 3 3 3 4 4 3 3 3 4 5 5 6 12 14 15 16 8 7 12 14 14 12 8 10 12 9 5 5 5 5 4 4 4 4 4 4 4 3
4 4 4 3 2 2 2 2 2 2 2 3 3 4 5 5 5 7 7 8 11 9 8 10 13 11 9 8 8 7 5 5 5 5 5 4 4 4 4 4 3 4 3
5 4 3 2 2 1 1 1 2 2 2 0 2 3 4 5 7 12 8 6 6 7 7 5 5 6 6 6 6 6 5 6 6 5 4 4 4 4 4 4 4 4 4
4 3 2 2 1 1 1 0 2 3 3 2 3 4 4 6 11 12 13 12 12 13 6 5 6 6 6 6 6 6 5 6 6 5 4 4 4 4 5 4 4 5 5
4 3 2 2 1 1 1 1 1 2 4 5 5 7 7 9 10 12 13 12 10 10 5 5 6 6 6 6 6 5 5 6 6 5 4 4 4 5 5 5 6 5 6
3 3 3 2 2 1 1 1 1 1 1 3 4 6 8 10 10 11 12 9 6 7 5 6 6 7 6 6 6 6 6 6 6 5 4 4 4 5 5 6 6 7 7
2 1 2 2 2 1 1 1 1 1 1 1 3 4 7 8 8 9 8 5 5 5 6 6 6 6 6 6 7 7 7 7 7 6 5 4 3 3 4 5 6 9 8
1 2 2 2 1 1 1 1 1 0 0 1 2 3 4 5 4 5 5 5 5 5 6 6 6 7 6 7 7 7 7 7 8 6 5 4 2 2 2 3 4 5 6
2 2 2 1 2 2 2 2 1 1 1 0 1 2 4 3 4 5 5 5 5 5 5 5 6 6 6 6 6 7 8 7 7 7 6 5 3 1 1 2 3 4 5
1 1 2 2 2 2 2 1 1 1 1 1 1 2 4 3 3 4 4 5 5 4 4 4 5 5 5 6 6 6 7 7 7 8 7 5 4 2 1 1 2 3 4
3 3 3 2 2 3 3 2 1 1 1 0 0 1 2 3 3 4 5 5 5 5 4 4 5 5 5 5 5 4 5 6 6 7 6 5 4 3 2 2 3 3 4
4 4 4 3 3 3 3 2 2 2 2 2 2 2 2 3 3 4 4 5 5 5 5 5 5 7 9 7 6 5 5 6 6 5 6 5 4 4 3 3 4 5 5
4 4 4 3 3 3 3 3 3 3 4 4 3 3 4 4 4 5 5 5 6 6 7 7 6 7 10 10 9 9 10 11 8 6 5 4 5 5 5 5 5 5 5
4 4 4 3 3 3 3 3 3 4 4 4 4 4 4 5 5 6 6 6 6 6 7 7 9 10 11 9 11 12 11 10 10 9 6 4 6 6 5 5 6 5 5
Wind_Direction
88 90 92 92 97 100 102 107 110 107 106 103 102 105 29 19 25 36 35 31 28 9 357 345 322 309 296 290 281 270 262 255 279 283 251 264 272 277 288 285 281 275 276
98 93 91 90 92 93 94 96 95 87 72 64 63 65 70 69 62 58 42 28 13 350 333 325 313 311 300 286 277 268 263 252 261 283 282 270 268 271 275 279 289 287 279
96 91 86 84 87 88 84 78 75 71 65 65 74 81 81 76 61 48 34 12 350 326 314 307 301 300 294 287 279 271 266 269 256 269 279 269 268 274 280 283 283 281 284
87 86 82 78 79 80 76 73 72 73 72 73 80 89 91 85 68 36 12 353 332 315 305 297 292 288 283 282 283 274 273 273 268 269 275 274 270 268 266 276 284 275 277
82 78 77 74 73 73 72 70 68 69 73 78 86 97 107 94 53 22 353 341 324 314 309 302 297 304 307 307 304 294 287 280 277 275 278 278 275 272 268 266 278 280 273
74 71 68 67 69 70 71 69 68 64 61 62 67 69 40 16 344 353 350 327 315 311 310 308 306 305 310 313 310 306 300 293 289 281 280 278 278 271 271 273 276 280 280
67 65 65 70 72 72 74 69 64 58 52 48 40 26 355 313 320 338 340 332 313 306 303 304 310 311 314 304 304 305 300 294 290 285 283 281 278 276 277 279 275 276 276
71 70 73 84 82 75 71 64 55 44 39 26 11 2 346 326 334 339 335 329 309 303 301 298 299 304 308 312 310 302 295 292 289 288 275 276 277 277 274 278 283 282 274
81 79 84 94 90 79 69 54 37 33 19 5 3 8 9 347 348 341 341 319 309 308 305 305 307 307 310 317 316 309 306 304 304 298 289 285 285 287 289 288 286 292 295
93 88 91 101 102 95 81 50 27 27 17 15 20 22 20 352 341 342 343 320 315 315 311 310 312 312 316 321 320 316 316 317 317 317 312 307 300 297 303 299 305 302 301
104 97 100 107 113 103 74 42 35 35 33 26 19 3 357 343 335 337 340 333 316 315 313 314 314 319 322 323 324 319 318 316 310 310 311 313 316 315 316 312 307 304 305
108 101 94 94 91 86 72 46 40 42 37 18 4 350 337 333 334 332 332 331 327 313 310 313 316 321 324 326 328 327 327 327 318 318 318 317 317 320 318 314 313 311 308
110 108 103 91 74 80 83 67 48 38 32 5 356 342 328 328 329 333 331 329 331 328 313 320 325 327 330 329 330 334 336 333 326 325 327 322 315 318 321 320 319 320 319
125 129 126 113 91 76 83 92 82 51 28 2 349 335 326 325 330 334 328 325 330 332 326 325 326 330 338 334 332 334 333 327 325 323 326 325 334 345 350 344 339 342 343
121 136 141 148 151 133 126 152 151 190 185 236 314 312 319 326 324 326 328 327 332 329 325 329 337 339 344 343 340 336 334 338 339 338 341 352 0 4 360 352 356 357 6
115 131 147 163 181 184 181 283 246 217 221 242 289 316 304 309 326 340 347 348 348 347 351 343 341 339 341 344 343 338 334 339 340 347 355 5 9 9 9 9 10 17 23
131 150 162 171 181 188 173 176 270 293 274 278 296 325 335 337 346 352 351 346 350 356 360 346 341 341 343 346 345 341 338 339 345 357 9 14 17 17 17 20 21 26 31
131 157 163 182 190 190 186 180 174 173 322 320 315 325 340 346 349 354 351 351 356 359 352 347 344 344 348 351 351 347 344 348 355 4 16 25 26 25 26 28 29 31 35
127 161 183 197 195 187 161 132 121 105 59 345 343 340 341 338 338 349 355 360 350 348 347 347 345 346 349 351 350 349 350 354 0 5 14 26 33 34 35 34 37 34 39
226 213 190 186 178 147 134 132 133 125 92 20 353 333 332 344 349 348 351 347 347 345 343 343 342 345 349 351 351 352 354 359 2 4 4 9 22 43 43 41 42 44 45
235 228 200 141 144 147 147 152 159 154 158 180 292 312 342 345 342 342 344 344 342 339 339 339 341 344 349 350 352 353 355 358 359 358 356 354 357 15 30 42 45 51 55
171 160 147 143 133 131 139 138 131 131 154 176 276 314 340 350 344 342 343 341 339 334 331 332 336 340 343 346 348 350 350 352 352 351 348 346 352 4 31 62 72 72 70
95 98 91 96 102 104 96 83 86 88 92 125 242 332 349 350 347 346 346 344 343 345 343 343 345 346 344 339 340 341 338 332 326 324 333 339 348 360 28 66 88 94 87
86 89 87 85 85 90 93 83 73 64 57 54 44 24 7 357 352 353 352 349 351 354 355 356 358 354 351 349 342 336 328 320 316 315 326 344 359 11 32 55 74 96 101
83 85 84 83 84 84 81 75 67 57 51 47 44 36 24 18 9 1 357 357 2 5 6 4 1 358 352 350 348 339 329 330 338 340 340 359 15 25 40 53 71 89 100
69 75 75 74 73 75 80 80 72 66 58 54 51 44 33 26 18 11 8 9 8 7 7 5 359 0 358 353 344 336 333 339 346 353 357 12 26 33 41 51 66 76 88